Regional Weather Roundup
Issued by NWS

Home | Current Version | Previous Version | Text Only | Print | Product List | Glossary Off
Versions: 1 2 3 4 5 6 7 8 9 10 11 12 13 14 15 16 17 18 19 20 21 22 23 24 25 26 27 28 29 30 31 32 33 34 35 36 37 38 39 40 41 42 43 44 45 46 47 48 49 50

144
ASUS43 KMPX 200001
RWRMN
WEATHER ROUNDUP FOR MINNESOTA
NATIONAL WEATHER SERVICE TWIN CITIES/CHANHASSEN MN
700 PM CDT THU APR 19 2018


NOTE: "FAIR" INDICATES FEW OR NO CLOUDS BELOW 12,000 FEET WITH NO
SIGNIFICANT WEATHER AND/OR OBSTRUCTIONS TO VISIBILITY. N/A MEANS
CURRENT SKY AND/OR WEATHER CONDITIONS ARE NOT AVAILABLE.

MNZ060>063-068>070-200100-
   Twin Cities Metro

CITY           SKY/WX    TMP DP  RH WIND       PRES   REMARKS
TWIN CITIES    FAIR      50  20  30 W5        30.44S
6HR MIN TEMP:  47; 6HR MAX TEMP:  53;

ST PAUL        FAIR      50  17  27 NW5       30.45S
CRYSTAL        FAIR      49  20  31 W3        30.43S
BLAINE         SUNNY     52  19  28 VRB3      30.43S
LAKEVILLE      FAIR      45  25  45 W7        30.45R
EDEN PRAIRIE   FAIR      48  22  35 W5        30.44R
6HR MIN TEMP:  47; 6HR MAX TEMP:  49;

SOUTH ST PAUL  FAIR      51  17  25 NW3       30.43S
LAKE ELMO      FAIR      50  19  29 CALM      30.44S
$$
MNZ001>005-007-008-013>017-022>024-027-028-200100-
   Northwest Minnesota

CITY           SKY/WX    TMP DP  RH WIND       PRES   REMARKS
BEMIDJI        FAIR      51  24  35 NW6       30.37S
HALLOCK        FAIR      55  36  47 S12       30.36S
ROSEAU         FAIR      54  32  43 SW8       30.37R
WARROAD        FAIR      55  27  33 SW7       30.37R
THIEF RVR FALL FAIR      53  27  36 W6        30.39S
CROOKSTON      FAIR      54  30  40 W8        30.40R
FOSSTON        FAIR      55  19  24 SW3       30.39R
DETROIT LAKES  FAIR      52  28  40 SW5       30.40S
MOORHEAD       FAIR      54  34  47 N8        30.39F
PARK RAPIDS    FAIR      51  29  42 SW8       30.38S
MAHNOMEN       FAIR      53  25  33 W8        30.38S
$$
MNZ006-009>011-018-025>026-200100-
   North Central Minnesota

CITY           SKY/WX    TMP DP  RH WIND       PRES   REMARKS
BAUDETTE       FAIR      54  16  22 N3        30.36S
FLAG ISLAND    FAIR      39  21  48 SE8       30.35F
INTL FALLS     FAIR      53  12  19 W5        30.36S
6HR MIN TEMP:  50; 6HR MAX TEMP:  55;

WASKISH        FAIR      54  18  24 W3        30.37S
BIG FORK       FAIR      54  16  22 SW8       30.37S
LONGVILLE      FAIR      54  12  19 SW5       30.38S
GRAND RAPIDS   FAIR      52  11  19 W5        30.40S
CRANE LAKE     FAIR      50   9  18 N6        30.39R
ORR            FAIR      54   3  13 CALM      30.34S
COOK           FAIR      54  12  19 W3        30.37S
WALKER         FAIR      52  17  25 SW8       30.37S
$$
MNZ012-019>021-037-200100-
   Northeast Minnesota

CITY           SKY/WX    TMP DP  RH WIND       PRES   REMARKS
DULUTH         FAIR      52  16  24 W7        30.37S
6HR MIN TEMP:  49; 6HR MAX TEMP:  54;

ELY            FAIR      50  10  20 W6        30.36S
HIBBING        FAIR      52  12  20 SW6       30.37S
EVELETH        FAIR      51  15  24 W5        30.38S
DULUTH HARBOR  FAIR      52  19  28 CALM      30.39R
TWO HARBORS    FAIR      57  27  30 S6        30.35S
SILVER BAY     FAIR      50  18  27 S8        30.35S
GRAND MARAIS     N/A     38  27  64 W6        30.37S
G MARAIS ARPRT FAIR      46  10  23 CALM      30.36R
$$
MNZ029>031-032-039>041-046>048-054>057-064-200100-
   West Central Minnesota

CITY           SKY/WX    TMP DP  RH WIND       PRES   REMARKS
FERGUS FALLS   FAIR      54  34  47 NW5       30.37S
WHEATON        MOSUNNY   54  27  35 W9        30.41F
MORRIS         SUNNY     48  36  61 S10       30.40F
ALEXANDRIA     FAIR      51  32  48 S12       30.41F
ELBOW LAKE     PTSUNNY   53  32  44 W3        30.40F
WADENA         FAIR      48  28  46 W5        30.40S
GLENWOOD       FAIR      48  30  49 S7        30.43S
APPLETON       SUNNY     46  25  42 S8        30.43S
BENSON         SUNNY     48  25  40 SW9       30.45S
ORTONVILLE     SUNNY     50  30  46 S6        30.41S
MADISON        CLOUDY    45  34  65 S6        30.43S
WILLMAR        FAIR      46  28  49 SW9       30.47S
$$
MNZ033>034-036-042>043-049>051-058-059-200100-
   Central Minnesota

CITY           SKY/WX    TMP DP  RH WIND       PRES   REMARKS
ST CLOUD       FAIR      50  26  39 SW9       30.42S
6HR MIN TEMP:  50; 6HR MAX TEMP:  53;

SAUK CENTRE    FAIR      48  29  46 SW8       30.42S
PAYNESVILLE    FAIR      48  32  53 W10       30.44S
AITKIN         FAIR      52  16  24 SW7       30.39R
PINE RIVER     FAIR      50  21  32 CALM      30.41S
BRAINERD       FAIR      53  18  25 NW6       30.40S
STAPLES        FAIR      50  25  37 W3        30.41R
LONG PRAIRIE   FAIR      48  30  49 S6        30.42S
LITTLE FALLS   FAIR      52  14  22 CALM      30.42R
LITCHFIELD     FAIR      46  32  57 SW3         N/A
BUFFALO        FAIR      46  24  42 SW6       30.46R
MAPLE LAKE     FAIR      47  28  48 SW9       30.45S
HUTCHINSON     FAIR      43  29  58 SW5       30.48S
$$
MNZ037-044-045-052-053-200100-
   East Central Minnesota

CITY           SKY/WX    TMP DP  RH WIND       PRES   REMARKS
PRINCETON      FAIR      52  23  32 NW3       30.43S
MORA           FAIR      50  21  32 SW6       30.43S
CAMBRIDGE      FAIR      52  30  43 CALM      30.43S
RUSH CITY      FAIR      50  23  34 W3        30.43R
MOOSE LAKE     FAIR      52  19  28 W6        30.37S
HINCKLEY       FAIR      52  23  32 CALM      30.41S
CLOQUET        FAIR      52   9  17 SW7       30.38R
MCGREGOR       FAIR      54  18  24 SW6       30.39S
$$
MNZ071>073-080-081-089-090-097-098-200100-
   Southwest Minnesota

CITY           SKY/WX    TMP DP  RH WIND       PRES   REMARKS
MONTEVIDEO     SUNNY     46  21  36 SW5       30.45S
GRANITE FALLS  SUNNY     44  33  66 SE6       30.47S
CANBY          CLOUDY    47  28  49 S6        30.45S
MARSHALL       SUNNY     45  23  42 SW5       30.46S
REDWOOD FALLS  SUNNY     40  26  57 S7        30.46S
OLIVIA         SUNNY     45  30  57 SW5       30.45F
PIPESTONE      CLOUDY   N/A N/A N/A SE3       30.43F
WINDOM         SUNNY     37  18  44 W3        30.46F
WORTHINGTON    SUNNY     38  27  64 CALM      30.46F
JACKSON        SUNNY     37  21  52 SW3       30.46F
TRACY          SUNNY     41  29  60 SW5       30.45S
SLAYTON        SUNNY     39  30  70 S5        30.46S
$$
MNZ065>067-074>077-082>085-091>093-200100-
   South Central Minnesota

CITY           SKY/WX    TMP DP  RH WIND       PRES   REMARKS
MANKATO        FAIR      46  20  35 CALM      30.47R
NEW ULM        SUNNY     37  28  70 W6        30.47S
ST JAMES       SUNNY     39  23  52 SW6       30.49S
FAIRMONT       SUNNY     38  20  48 SW5       30.48S
GLENCOE        FAIR      44  29  56 W5        30.46S
OWATONNA       FAIR      39  30  70 W5        30.46R
WASECA         FAIR      36  28  75 SW6       30.48S
ALBERT LEA     FAIR      41  16  36 CALM      30.46S
$$
MNZ078>079-086>088-094>096-200100-
   Southeast Minnesota

CITY           SKY/WX    TMP DP  RH WIND       PRES   REMARKS
ROCHESTER      FAIR      41  25  53 NW7       30.45S
6HR MIN TEMP:  39; 6HR MAX TEMP:  42;

RED WING       FAIR      50  14  23 W3        30.44S
STANTON        FAIR      45  26  48 SW3       30.44S
DODGE CENTER   FAIR      43  19  39 CALM      30.45S
WINONA         FAIR      48  21  34 NW5       30.43R
AUSTIN         FAIR      43  21  42 CALM      30.46R
PRESTON        FAIR      42  21  42 NW3       30.46R
$$
ABBREVIATIONS USED IN REMARKS
   TC - TEMPERATURES IN CELSIUS
  WCI - WIND CHILL INDEX
   HX - HEAT INDEX
  VSB - VISIBILITY
$$




USA.gov is the U.S. government's official web portal to all federal, state and local government web resources and services.